QPF
0.01 0.00 0.01 0.01 0.01 0.01 0.01 0.00 0.00 0.00 0.00 0.00 0.00 0.00 0.00 0.00 0.01 0.01 0.02 0.05 0.06 0.05 0.05 0.05 0.06 0.05 0.06 0.05 0.04 0.03 0.02 0.01 0.02 0.02 0.02 0.02 0.02 0.02 0.02 0.03 0.03 0.03 0.04 0.03
0.00 0.01 0.01 0.01 0.01 0.00 0.00 0.00 0.00 0.00 0.01 0.01 0.00 0.00 0.00 0.00 0.00 0.01 0.02 0.07 0.08 0.05 0.05 0.06 0.06 0.07 0.07 0.08 0.06 0.04 0.02 0.01 0.01 0.02 0.02 0.02 0.02 0.02 0.03 0.03 0.02 0.03 0.03 0.03
0.00 0.00 0.01 0.02 0.01 0.00 0.01 0.01 0.01 0.01 0.01 0.01 0.00 0.00 0.00 0.00 0.00 0.01 0.01 0.05 0.07 0.05 0.05 0.06 0.07 0.07 0.07 0.08 0.06 0.04 0.03 0.01 0.01 0.01 0.02 0.02 0.02 0.03 0.03 0.02 0.02 0.03 0.03 0.03
0.01 0.01 0.04 0.04 0.01 0.01 0.01 0.01 0.01 0.02 0.02 0.02 0.02 0.01 0.00 0.00 0.00 0.00 0.01 0.03 0.06 0.07 0.04 0.05 0.06 0.07 0.08 0.09 0.08 0.05 0.04 0.02 0.02 0.01 0.01 0.03 0.03 0.03 0.03 0.02 0.02 0.02 0.02 0.03
0.01 0.02 0.02 0.02 0.03 0.02 0.01 0.02 0.01 0.02 0.03 0.03 0.03 0.03 0.01 0.01 0.00 0.01 0.01 0.02 0.04 0.06 0.04 0.04 0.05 0.06 0.07 0.08 0.07 0.06 0.04 0.03 0.01 0.01 0.01 0.03 0.03 0.04 0.03 0.02 0.01 0.01 0.02 0.02
0.01 0.02 0.02 0.01 0.02 0.02 0.01 0.02 0.01 0.02 0.03 0.04 0.04 0.03 0.03 0.02 0.01 0.01 0.01 0.01 0.02 0.03 0.04 0.03 0.02 0.04 0.06 0.07 0.06 0.06 0.05 0.03 0.02 0.02 0.03 0.03 0.04 0.03 0.03 0.02 0.01 0.01 0.01 0.01
0.02 0.02 0.01 0.01 0.01 0.02 0.02 0.02 0.01 0.02 0.03 0.05 0.04 0.02 0.02 0.02 0.02 0.01 0.00 0.00 0.01 0.01 0.02 0.01 0.01 0.02 0.04 0.06 0.05 0.04 0.04 0.03 0.04 0.05 0.05 0.04 0.04 0.04 0.02 0.02 0.01 0.01 0.01 0.01
0.02 0.03 0.02 0.01 0.01 0.01 0.02 0.02 0.01 0.02 0.03 0.04 0.04 0.02 0.02 0.02 0.02 0.01 0.00 0.00 0.00 0.01 0.01 0.01 0.01 0.02 0.04 0.04 0.04 0.03 0.03 0.03 0.03 0.06 0.06 0.05 0.06 0.04 0.03 0.02 0.01 0.01 0.01 0.01
0.03 0.04 0.02 0.01 0.01 0.01 0.01 0.01 0.02 0.02 0.03 0.03 0.02 0.02 0.03 0.02 0.01 0.01 0.01 0.00 0.00 0.00 0.00 0.00 0.01 0.02 0.03 0.03 0.03 0.02 0.02 0.03 0.04 0.04 0.04 0.05 0.06 0.06 0.04 0.03 0.02 0.01 0.01 0.01
0.04 0.04 0.02 0.01 0.01 0.00 0.00 0.01 0.01 0.01 0.02 0.02 0.02 0.03 0.04 0.03 0.02 0.01 0.01 0.01 0.00 0.00 0.00 0.00 0.01 0.02 0.02 0.02 0.02 0.02 0.02 0.03 0.04 0.05 0.04 0.03 0.04 0.06 0.07 0.05 0.03 0.02 0.01 0.01
0.02 0.02 0.02 0.01 0.01 0.00 0.00 0.00 0.00 0.01 0.01 0.01 0.02 0.03 0.04 0.03 0.02 0.01 0.01 0.02 0.01 0.01 0.01 0.01 0.01 0.01 0.02 0.01 0.01 0.01 0.02 0.03 0.03 0.04 0.04 0.03 0.02 0.04 0.06 0.06 0.04 0.03 0.02 0.02
0.02 0.01 0.01 0.01 0.00 0.00 0.00 0.01 0.01 0.01 0.01 0.01 0.01 0.02 0.03 0.03 0.02 0.02 0.02 0.02 0.02 0.01 0.01 0.01 0.01 0.02 0.02 0.01 0.01 0.01 0.01 0.02 0.03 0.04 0.05 0.05 0.04 0.03 0.04 0.04 0.04 0.02 0.02 0.02
0.01 0.00 0.00 0.00 0.00 0.00 0.00 0.00 0.01 0.02 0.01 0.01 0.01 0.01 0.02 0.02 0.02 0.01 0.01 0.01 0.01 0.01 0.01 0.01 0.02 0.02 0.02 0.01 0.01 0.00 0.00 0.01 0.01 0.02 0.04 0.06 0.06 0.05 0.04 0.03 0.04 0.05 0.03 0.03
0.01 0.00 0.00 0.00 0.00 0.00 0.00 0.00 0.01 0.03 0.02 0.01 0.01 0.01 0.02 0.02 0.01 0.01 0.01 0.00 0.00 0.01 0.01 0.01 0.02 0.02 0.02 0.01 0.01 0.00 0.00 0.01 0.01 0.01 0.02 0.05 0.08 0.09 0.07 0.03 0.03 0.03 0.02 0.02
0.01 0.01 0.00 0.00 0.00 0.00 0.00 0.01 0.02 0.03 0.03 0.02 0.01 0.01 0.02 0.02 0.01 0.01 0.01 0.01 0.01 0.01 0.01 0.01 0.02 0.02 0.02 0.02 0.01 0.01 0.01 0.01 0.01 0.01 0.01 0.02 0.04 0.07 0.10 0.07 0.04 0.04 0.03 0.03
0.01 0.00 0.00 0.00 0.00 0.00 0.00 0.01 0.02 0.02 0.02 0.02 0.02 0.01 0.02 0.02 0.01 0.01 0.02 0.02 0.01 0.01 0.01 0.01 0.01 0.01 0.02 0.02 0.02 0.02 0.02 0.01 0.01 0.00 0.01 0.01 0.02 0.03 0.05 0.09 0.08 0.05 0.04 0.04
0.01 0.00 0.00 0.00 0.00 0.00 0.00 0.01 0.02 0.02 0.01 0.02 0.02 0.02 0.01 0.01 0.01 0.00 0.00 0.01 0.01 0.00 0.00 0.00 0.00 0.00 0.01 0.01 0.02 0.02 0.02 0.02 0.02 0.01 0.01 0.01 0.01 0.01 0.02 0.03 0.05 0.05 0.04 0.03
0.01 0.01 0.01 0.00 0.00 0.00 0.01 0.01 0.02 0.02 0.02 0.02 0.02 0.02 0.02 0.01 0.01 0.01 0.01 0.01 0.01 0.01 0.00 0.00 0.00 0.00 0.00 0.01 0.01 0.02 0.02 0.02 0.02 0.02 0.01 0.01 0.02 0.01 0.01 0.01 0.02 0.02 0.03 0.03
0.01 0.01 0.01 0.01 0.01 0.01 0.01 0.02 0.02 0.02 0.02 0.02 0.02 0.02 0.02 0.01 0.01 0.00 0.00 0.00 0.01 0.01 0.01 0.00 0.00 0.00 0.00 0.00 0.01 0.01 0.02 0.02 0.02 0.02 0.02 0.02 0.02 0.02 0.02 0.02 0.02 0.01 0.01 0.02
0.01 0.01 0.00 0.00 0.01 0.01 0.01 0.02 0.02 0.02 0.02 0.02 0.02 0.02 0.02 0.01 0.01 0.01 0.01 0.01 0.01 0.01 0.01 0.01 0.01 0.00 0.00 0.00 0.01 0.01 0.02 0.02 0.02 0.02 0.02 0.02 0.02 0.02 0.02 0.02 0.02 0.02 0.02 0.01
0.00 0.00 0.01 0.01 0.01 0.01 0.01 0.02 0.02 0.02 0.03 0.03 0.04 0.03 0.03 0.02 0.02 0.02 0.01 0.02 0.01 0.01 0.01 0.01 0.01 0.01 0.01 0.01 0.01 0.01 0.01 0.01 0.01 0.01 0.02 0.02 0.02 0.02 0.02 0.03 0.03 0.03 0.02 0.01
0.00 0.00 0.01 0.01 0.01 0.01 0.01 0.02 0.03 0.03 0.03 0.04 0.04 0.03 0.03 0.03 0.02 0.01 0.01 0.01 0.01 0.01 0.01 0.01 0.00 0.01 0.01 0.01 0.01 0.01 0.00 0.00 0.01 0.01 0.01 0.01 0.01 0.01 0.02 0.02 0.02 0.03 0.02 0.01
0.00 0.01 0.01 0.01 0.01 0.01 0.01 0.02 0.02 0.02 0.02 0.02 0.03 0.02 0.02 0.02 0.01 0.01 0.01 0.01 0.01 0.01 0.00 0.00 0.00 0.01 0.01 0.01 0.01 0.01 0.01 0.01 0.01 0.01 0.01 0.01 0.01 0.01 0.01 0.02 0.02 0.03 0.02 0.02
0.01 0.01 0.01 0.01 0.01 0.01 0.01 0.02 0.02 0.02 0.02 0.02 0.02 0.02 0.01 0.01 0.01 0.02 0.02 0.01 0.01 0.00 0.00 0.00 0.00 0.01 0.00 0.00 0.00 0.01 0.01 0.01 0.01 0.01 0.01 0.01 0.01 0.01 0.01 0.01 0.02 0.02 0.02 0.02
0.01 0.01 0.01 0.01 0.01 0.02 0.02 0.02 0.02 0.02 0.02 0.02 0.02 0.01 0.01 0.01 0.02 0.02 0.02 0.01 0.00 0.00 0.00 0.00 0.00 0.00 0.00 0.00 0.00 0.00 0.01 0.01 0.01 0.01 0.01 0.01 0.01 0.01 0.01 0.01 0.01 0.02 0.02 0.02
0.01 0.01 0.01 0.01 0.01 0.01 0.01 0.01 0.01 0.02 0.02 0.02 0.02 0.02 0.01 0.02 0.02 0.01 0.01 0.01 0.00 0.00 0.00 0.00 0.00 0.00 0.00 0.00 0.00 0.01 0.01 0.01 0.01 0.01 0.01 0.01 0.01 0.01 0.01 0.01 0.01 0.01 0.01 0.02
0.00 0.00 0.01 0.01 0.01 0.01 0.01 0.01 0.01 0.01 0.02 0.02 0.02 0.02 0.02 0.02 0.03 0.02 0.02 0.01 0.01 0.01 0.01 0.00 0.00 0.00 0.00 0.01 0.01 0.01 0.01 0.01 0.01 0.01 0.01 0.01 0.01 0.01 0.01 0.01 0.01 0.01 0.01 0.01
MSLP
1012.42 1012.02 1011.60 1011.17 1010.72 1010.27 1009.80 1009.31 1008.82 1008.31 1007.81 1007.31 1006.83 1006.38 1005.95 1005.54 1005.16 1004.81 1004.49 1004.21 1003.98 1003.83 1003.79 1003.86 1004.07 1004.43 1004.93 1005.55 1006.26 1007.03 1007.81 1008.57 1009.30 1009.97 1010.60 1011.20 1011.78 1012.36 1012.97 1013.60 1014.27 1014.97 1015.67 1016.37
1011.73 1011.35 1010.94 1010.52 1010.08 1009.62 1009.15 1008.67 1008.18 1007.69 1007.19 1006.70 1006.21 1005.74 1005.27 1004.82 1004.39 1003.99 1003.63 1003.33 1003.12 1003.01 1003.02 1003.18 1003.49 1003.95 1004.53 1005.21 1005.96 1006.74 1007.51 1008.24 1008.93 1009.56 1010.16 1010.73 1011.30 1011.89 1012.51 1013.17 1013.87 1014.60 1015.33 1016.05
1011.21 1010.85 1010.49 1010.10 1009.70 1009.27 1008.81 1008.32 1007.81 1007.28 1006.72 1006.15 1005.56 1004.98 1004.39 1003.83 1003.29 1002.80 1002.38 1002.06 1001.86 1001.81 1001.92 1002.19 1002.62 1003.20 1003.90 1004.67 1005.48 1006.29 1007.07 1007.80 1008.48 1009.10 1009.68 1010.25 1010.82 1011.43 1012.07 1012.76 1013.49 1014.24 1014.99 1015.73
1010.96 1010.63 1010.31 1009.97 1009.61 1009.20 1008.75 1008.25 1007.68 1007.05 1006.38 1005.65 1004.90 1004.12 1003.35 1002.60 1001.91 1001.30 1000.80 1000.45 1000.27 1000.28 1000.48 1000.87 1001.44 1002.15 1002.97 1003.85 1004.74 1005.62 1006.44 1007.20 1007.89 1008.53 1009.13 1009.72 1010.33 1010.96 1011.64 1012.36 1013.11 1013.88 1014.65 1015.38
1011.03 1010.72 1010.42 1010.11 1009.78 1009.39 1008.92 1008.37 1007.72 1006.98 1006.13 1005.22 1004.24 1003.23 1002.23 1001.27 1000.39 999.64 999.05 998.65 998.48 998.54 998.83 999.33 1000.02 1000.85 1001.78 1002.77 1003.75 1004.70 1005.59 1006.41 1007.16 1007.85 1008.50 1009.15 1009.80 1010.49 1011.21 1011.96 1012.73 1013.51 1014.27 1015.00
1011.40 1011.07 1010.76 1010.46 1010.12 1009.73 1009.23 1008.62 1007.87 1006.99 1005.98 1004.85 1003.65 1002.41 1001.18 1000.00 998.95 998.05 997.36 996.91 996.73 996.81 997.16 997.74 998.51 999.44 1000.46 1001.52 1002.59 1003.62 1004.58 1005.47 1006.30 1007.07 1007.81 1008.54 1009.26 1010.01 1010.77 1011.55 1012.33 1013.11 1013.86 1014.58
1012.00 1011.60 1011.25 1010.92 1010.56 1010.14 1009.60 1008.92 1008.08 1007.07 1005.91 1004.61 1003.21 1001.77 1000.35 999.00 997.80 996.78 996.00 995.50 995.29 995.38 995.74 996.34 997.15 998.11 999.17 1000.28 1001.40 1002.48 1003.51 1004.48 1005.40 1006.27 1007.10 1007.91 1008.72 1009.53 1010.34 1011.14 1011.93 1012.70 1013.44 1014.13
1012.71 1012.23 1011.81 1011.42 1011.01 1010.54 1009.95 1009.21 1008.30 1007.21 1005.94 1004.53 1003.01 1001.45 999.91 998.45 997.15 996.06 995.22 994.67 994.43 994.48 994.82 995.39 996.17 997.10 998.14 999.24 1000.35 1001.45 1002.52 1003.55 1004.54 1005.49 1006.42 1007.32 1008.21 1009.08 1009.93 1010.75 1011.54 1012.29 1012.99 1013.66
1013.44 1012.86 1012.36 1011.89 1011.42 1010.90 1010.27 1009.49 1008.54 1007.41 1006.11 1004.66 1003.11 1001.51 999.95 998.47 997.15 996.04 995.18 994.60 994.32 994.33 994.59 995.08 995.77 996.60 997.54 998.55 999.60 1000.66 1001.72 1002.77 1003.80 1004.82 1005.81 1006.79 1007.74 1008.66 1009.54 1010.37 1011.15 1011.88 1012.55 1013.18
1014.12 1013.46 1012.86 1012.32 1011.78 1011.21 1010.54 1009.76 1008.81 1007.70 1006.43 1005.03 1003.54 1002.01 1000.51 999.10 997.83 996.77 995.93 995.35 995.04 994.97 995.13 995.50 996.03 996.70 997.48 998.34 999.26 1000.22 1001.20 1002.22 1003.24 1004.28 1005.31 1006.32 1007.31 1008.26 1009.15 1009.99 1010.76 1011.46 1012.10 1012.70
1014.74 1014.00 1013.32 1012.71 1012.12 1011.51 1010.83 1010.06 1009.15 1008.11 1006.93 1005.65 1004.28 1002.90 1001.54 1000.27 999.13 998.16 997.39 996.83 996.49 996.34 996.39 996.59 996.94 997.40 997.96 998.61 999.34 1000.13 1000.99 1001.91 1002.87 1003.87 1004.89 1005.91 1006.90 1007.86 1008.75 1009.58 1010.33 1011.01 1011.63 1012.21
1015.32 1014.52 1013.79 1013.12 1012.48 1011.85 1011.18 1010.43 1009.59 1008.65 1007.60 1006.47 1005.29 1004.09 1002.93 1001.84 1000.86 1000.03 999.34 998.83 998.47 998.26 998.18 998.21 998.34 998.57 998.89 999.29 999.78 1000.37 1001.05 1001.82 1002.66 1003.58 1004.53 1005.51 1006.48 1007.41 1008.29 1009.10 1009.84 1010.51 1011.11 1011.68
1015.88 1015.06 1014.30 1013.60 1012.94 1012.29 1011.63 1010.92 1010.15 1009.31 1008.40 1007.43 1006.43 1005.44 1004.48 1003.59 1002.78 1002.09 1001.51 1001.04 1000.68 1000.40 1000.21 1000.08 1000.01 1000.01 1000.07 1000.22 1000.47 1000.82 1001.28 1001.87 1002.56 1003.34 1004.20 1005.09 1006.00 1006.88 1007.73 1008.52 1009.24 1009.91 1010.51 1011.08
1016.46 1015.65 1014.89 1014.18 1013.51 1012.86 1012.21 1011.54 1010.83 1010.08 1009.29 1008.46 1007.63 1006.81 1006.03 1005.31 1004.66 1004.10 1003.61 1003.19 1002.83 1002.51 1002.22 1001.95 1001.71 1001.50 1001.34 1001.25 1001.26 1001.38 1001.62 1002.01 1002.52 1003.14 1003.86 1004.64 1005.46 1006.28 1007.07 1007.83 1008.54 1009.19 1009.81 1010.39
1017.06 1016.29 1015.55 1014.86 1014.20 1013.56 1012.93 1012.28 1011.62 1010.93 1010.22 1009.50 1008.79 1008.10 1007.45 1006.86 1006.33 1005.86 1005.44 1005.07 1004.71 1004.35 1003.99 1003.62 1003.25 1002.88 1002.54 1002.26 1002.06 1001.97 1002.02 1002.20 1002.52 1002.98 1003.54 1004.19 1004.89 1005.61 1006.34 1007.05 1007.73 1008.38 1009.00 1009.60
1017.64 1016.93 1016.25 1015.59 1014.96 1014.34 1013.73 1013.11 1012.48 1011.83 1011.17 1010.51 1009.86 1009.25 1008.68 1008.16 1007.70 1007.29 1006.91 1006.56 1006.21 1005.84 1005.44 1005.00 1004.54 1004.07 1003.61 1003.19 1002.84 1002.59 1002.46 1002.46 1002.61 1002.89 1003.29 1003.78 1004.35 1004.96 1005.60 1006.24 1006.87 1007.50 1008.11 1008.71
1018.14 1017.52 1016.91 1016.31 1015.74 1015.16 1014.58 1013.99 1013.38 1012.75 1012.11 1011.47 1010.85 1010.26 1009.72 1009.23 1008.79 1008.40 1008.04 1007.69 1007.34 1006.97 1006.55 1006.09 1005.60 1005.08 1004.55 1004.05 1003.60 1003.23 1002.97 1002.83 1002.82 1002.94 1003.17 1003.51 1003.93 1004.41 1004.93 1005.48 1006.04 1006.61 1007.18 1007.76
1018.50 1017.98 1017.47 1016.96 1016.46 1015.94 1015.41 1014.86 1014.27 1013.66 1013.04 1012.40 1011.78 1011.19 1010.64 1010.14 1009.69 1009.28 1008.92 1008.57 1008.21 1007.84 1007.43 1006.98 1006.48 1005.96 1005.42 1004.89 1004.40 1003.96 1003.61 1003.36 1003.22 1003.19 1003.27 1003.45 1003.71 1004.04 1004.42 1004.85 1005.30 1005.79 1006.29 1006.82
1018.69 1018.27 1017.87 1017.47 1017.06 1016.63 1016.18 1015.68 1015.14 1014.56 1013.95 1013.32 1012.70 1012.09 1011.52 1010.99 1010.51 1010.08 1009.69 1009.32 1008.96 1008.59 1008.19 1007.77 1007.30 1006.81 1006.30 1005.78 1005.28 1004.82 1004.42 1004.09 1003.85 1003.70 1003.63 1003.66 1003.76 1003.93 1004.16 1004.43 1004.76 1005.12 1005.52 1005.95
1018.71 1018.41 1018.12 1017.83 1017.54 1017.21 1016.84 1016.43 1015.95 1015.43 1014.85 1014.25 1013.63 1013.02 1012.42 1011.87 1011.36 1010.90 1010.48 1010.09 1009.72 1009.35 1008.97 1008.57 1008.15 1007.69 1007.22 1006.74 1006.26 1005.80 1005.38 1005.00 1004.69 1004.43 1004.25 1004.13 1004.08 1004.09 1004.15 1004.27 1004.44 1004.66 1004.92 1005.22
1018.62 1018.43 1018.26 1018.08 1017.90 1017.68 1017.41 1017.09 1016.70 1016.24 1015.73 1015.17 1014.58 1013.98 1013.39 1012.82 1012.29 1011.80 1011.35 1010.94 1010.56 1010.18 1009.81 1009.43 1009.04 1008.63 1008.20 1007.75 1007.30 1006.86 1006.43 1006.03 1005.66 1005.34 1005.05 1004.82 1004.63 1004.50 1004.41 1004.36 1004.37 1004.43 1004.53 1004.69
1018.54 1018.43 1018.35 1018.28 1018.19 1018.07 1017.90 1017.67 1017.36 1016.99 1016.55 1016.05 1015.51 1014.95 1014.38 1013.82 1013.28 1012.78 1012.31 1011.87 1011.46 1011.08 1010.70 1010.33 1009.95 1009.56 1009.16 1008.75 1008.33 1007.91 1007.49 1007.07 1006.68 1006.31 1005.96 1005.63 1005.34 1005.08 1004.86 1004.68 1004.54 1004.44 1004.39 1004.39
1018.54 1018.50 1018.49 1018.48 1018.46 1018.41 1018.32 1018.17 1017.95 1017.65 1017.28 1016.86 1016.38 1015.86 1015.33 1014.79 1014.26 1013.75 1013.27 1012.81 1012.38 1011.97 1011.57 1011.18 1010.80 1010.42 1010.03 1009.64 1009.24 1008.83 1008.43 1008.02 1007.62 1007.23 1006.84 1006.47 1006.10 1005.76 1005.44 1005.15 1004.89 1004.66 1004.48 1004.34
1018.71 1018.70 1018.72 1018.75 1018.76 1018.75 1018.70 1018.60 1018.43 1018.19 1017.89 1017.53 1017.11 1016.64 1016.15 1015.65 1015.14 1014.63 1014.14 1013.66 1013.20 1012.76 1012.33 1011.92 1011.51 1011.12 1010.73 1010.34 1009.95 1009.56 1009.17 1008.78 1008.39 1008.00 1007.61 1007.22 1006.83 1006.45 1006.07 1005.71 1005.37 1005.05 1004.76 1004.50
1019.07 1019.07 1019.08 1019.10 1019.11 1019.10 1019.05 1018.96 1018.81 1018.61 1018.34 1018.03 1017.66 1017.24 1016.79 1016.32 1015.83 1015.33 1014.83 1014.34 1013.86 1013.38 1012.92 1012.47 1012.04 1011.62 1011.21 1010.81 1010.42 1010.05 1009.68 1009.31 1008.95 1008.58 1008.21 1007.83 1007.45 1007.07 1006.67 1006.28 1005.90 1005.52 1005.16 1004.83
1019.58 1019.56 1019.55 1019.53 1019.50 1019.45 1019.37 1019.25 1019.09 1018.89 1018.64 1018.34 1018.00 1017.62 1017.21 1016.76 1016.30 1015.81 1015.31 1014.81 1014.31 1013.81 1013.31 1012.83 1012.36 1011.91 1011.48 1011.07 1010.68 1010.31 1009.96 1009.62 1009.28 1008.95 1008.62 1008.27 1007.92 1007.56 1007.18 1006.80 1006.40 1006.01 1005.62 1005.24
1020.16 1020.12 1020.06 1019.98 1019.89 1019.78 1019.64 1019.47 1019.27 1019.05 1018.78 1018.49 1018.16 1017.80 1017.41 1016.99 1016.55 1016.08 1015.59 1015.09 1014.58 1014.06 1013.54 1013.03 1012.54 1012.06 1011.61 1011.19 1010.79 1010.42 1010.08 1009.75 1009.45 1009.15 1008.85 1008.54 1008.23 1007.90 1007.56 1007.19 1006.82 1006.42 1006.03 1005.64
Thickness
5653 5659 5661 5660 5662 5662 5655 5648 5640 5644 5646 5649 5653 5654 5655 5654 5652 5651 5648 5645 5644 5642 5641 5640 5639 5637 5635 5634 5632 5631 5628 5625 5623 5621 5620 5617 5615 5613 5612 5609 5607 5604 5601 5599
5648 5656 5656 5654 5656 5658 5656 5654 5648 5647 5644 5651 5651 5648 5646 5646 5645 5642 5641 5639 5638 5636 5635 5634 5633 5632 5629 5627 5626 5624 5621 5618 5616 5614 5612 5610 5608 5606 5603 5601 5598 5596 5593 5590
5631 5643 5646 5638 5648 5651 5649 5650 5648 5641 5643 5645 5642 5641 5639 5638 5638 5636 5634 5633 5631 5630 5629 5627 5627 5626 5623 5622 5620 5617 5614 5612 5609 5607 5605 5603 5601 5598 5595 5592 5590 5587 5584 5581
5624 5630 5623 5638 5651 5652 5645 5643 5645 5644 5642 5642 5640 5638 5636 5635 5633 5630 5629 5627 5625 5624 5623 5622 5621 5620 5618 5615 5612 5609 5607 5605 5602 5600 5598 5596 5593 5590 5587 5584 5581 5578 5575 5573
5614 5614 5620 5636 5645 5645 5639 5633 5638 5636 5635 5634 5633 5629 5626 5630 5630 5627 5625 5623 5622 5620 5619 5617 5615 5612 5610 5607 5604 5602 5600 5598 5596 5594 5591 5588 5586 5583 5580 5576 5573 5570 5568 5566
5609 5609 5608 5626 5640 5646 5638 5622 5631 5630 5627 5625 5625 5615 5616 5624 5624 5622 5621 5618 5616 5615 5613 5611 5609 5606 5603 5600 5597 5595 5594 5592 5591 5588 5585 5582 5579 5576 5572 5569 5566 5564 5561 5559
5602 5601 5609 5625 5634 5636 5617 5616 5625 5624 5622 5620 5616 5615 5616 5618 5616 5616 5614 5613 5610 5608 5606 5604 5602 5599 5595 5592 5590 5589 5587 5586 5584 5582 5579 5576 5572 5569 5565 5561 5558 5555 5553 5552
5595 5593 5602 5623 5623 5616 5614 5618 5619 5617 5616 5614 5612 5612 5611 5610 5608 5607 5606 5605 5603 5600 5597 5595 5594 5591 5587 5585 5584 5582 5580 5578 5576 5574 5572 5569 5564 5561 5557 5553 5549 5547 5545 5543
5598 5600 5610 5616 5617 5617 5614 5611 5611 5609 5609 5608 5606 5604 5603 5601 5600 5599 5598 5597 5595 5593 5590 5587 5586 5584 5581 5579 5577 5574 5572 5571 5569 5567 5564 5561 5557 5553 5549 5546 5543 5540 5538 5536
5593 5599 5603 5606 5608 5609 5608 5607 5606 5604 5603 5601 5598 5597 5595 5593 5591 5590 5590 5589 5587 5584 5581 5579 5578 5577 5575 5572 5569 5567 5565 5563 5561 5559 5556 5553 5550 5547 5543 5540 5537 5535 5533 5531
5586 5591 5594 5597 5598 5599 5600 5600 5599 5598 5596 5594 5591 5589 5587 5585 5584 5583 5582 5580 5579 5576 5573 5571 5570 5568 5567 5565 5562 5559 5557 5555 5553 5551 5549 5545 5542 5539 5538 5535 5534 5531 5529 5527
5580 5585 5583 5586 5590 5592 5591 5590 5590 5588 5586 5585 5584 5581 5579 5577 5576 5575 5573 5572 5570 5567 5565 5563 5562 5560 5559 5558 5556 5553 5550 5548 5546 5543 5540 5537 5534 5531 5530 5529 5529 5528 5526 5524
5582 5585 5582 5583 5584 5585 5583 5583 5583 5581 5579 5576 5576 5574 5572 5570 5568 5567 5565 5563 5562 5560 5558 5556 5554 5553 5552 5551 5549 5546 5543 5541 5539 5536 5533 5530 5527 5525 5522 5521 5521 5520 5519 5518
5576 5576 5573 5574 5574 5576 5576 5576 5575 5574 5572 5570 5568 5566 5564 5562 5560 5559 5557 5556 5555 5552 5551 5549 5547 5545 5545 5543 5541 5539 5536 5535 5532 5529 5527 5524 5521 5519 5517 5515 5512 5510 5510 5510
5568 5568 5567 5567 5566 5566 5567 5566 5565 5563 5562 5561 5560 5558 5556 5554 5552 5551 5550 5548 5546 5544 5543 5542 5540 5538 5538 5536 5534 5532 5530 5527 5525 5522 5520 5518 5515 5513 5510 5508 5506 5504 5503 5502
5560 5560 5559 5558 5557 5557 5557 5556 5555 5554 5554 5553 5551 5550 5549 5548 5546 5544 5542 5540 5539 5537 5536 5535 5533 5532 5531 5530 5527 5525 5523 5522 5520 5516 5513 5511 5509 5506 5504 5502 5500 5498 5497 5496
5550 5549 5548 5547 5548 5548 5548 5548 5548 5547 5547 5545 5544 5543 5541 5539 5536 5534 5533 5532 5532 5530 5529 5528 5526 5525 5524 5522 5521 5519 5517 5515 5513 5510 5507 5505 5503 5501 5499 5497 5495 5493 5492 5492
5547 5545 5543 5541 5540 5539 5539 5539 5539 5539 5539 5538 5537 5535 5533 5531 5528 5526 5524 5523 5522 5521 5521 5521 5520 5519 5517 5515 5514 5512 5510 5508 5505 5503 5501 5500 5498 5496 5494 5492 5491 5489 5488 5486
5539 5538 5536 5536 5534 5533 5531 5531 5531 5531 5531 5530 5529 5527 5526 5524 5522 5519 5517 5515 5514 5512 5513 5513 5514 5512 5510 5508 5507 5505 5503 5501 5499 5497 5495 5494 5492 5490 5489 5487 5486 5485 5483 5481
5532 5531 5530 5529 5528 5526 5524 5524 5523 5523 5522 5521 5519 5517 5516 5515 5513 5512 5510 5508 5508 5507 5507 5507 5506 5504 5503 5501 5500 5498 5496 5494 5492 5490 5488 5487 5485 5484 5483 5482 5481 5480 5478 5476
5524 5523 5522 5521 5520 5519 5518 5517 5515 5514 5513 5512 5511 5509 5507 5507 5506 5504 5502 5500 5500 5501 5500 5501 5499 5498 5496 5495 5494 5491 5489 5487 5485 5483 5482 5480 5479 5478 5477 5476 5475 5474 5473 5472
5515 5514 5514 5513 5511 5510 5509 5508 5508 5507 5506 5504 5503 5501 5499 5498 5497 5495 5495 5494 5494 5494 5493 5492 5492 5492 5491 5489 5486 5484 5483 5481 5479 5477 5476 5474 5473 5472 5471 5470 5469 5468 5467 5466
5506 5505 5505 5504 5503 5502 5501 5500 5500 5499 5498 5497 5495 5493 5491 5490 5489 5487 5486 5487 5487 5487 5486 5485 5485 5485 5484 5481 5479 5477 5476 5475 5473 5472 5470 5469 5468 5467 5466 5464 5463 5462 5461 5461
5499 5498 5497 5497 5496 5494 5492 5492 5491 5491 5490 5489 5487 5486 5484 5482 5481 5481 5480 5481 5481 5480 5479 5478 5478 5477 5476 5472 5471 5470 5469 5468 5467 5466 5465 5464 5462 5461 5459 5458 5457 5456 5456 5455
5492 5490 5489 5488 5487 5486 5485 5484 5483 5481 5481 5479 5478 5478 5477 5476 5474 5474 5473 5473 5473 5472 5471 5470 5470 5469 5466 5465 5463 5462 5462 5461 5460 5459 5458 5457 5456 5455 5453 5452 5451 5450 5449 5448
5484 5482 5481 5480 5480 5478 5477 5476 5474 5473 5472 5470 5469 5469 5468 5467 5467 5466 5465 5464 5464 5463 5462 5460 5460 5459 5458 5457 5456 5455 5454 5454 5453 5452 5451 5451 5450 5448 5447 5446 5445 5444 5443 5442
5475 5474 5472 5471 5471 5471 5470 5469 5467 5466 5465 5464 5462 5461 5461 5460 5459 5458 5456 5455 5454 5453 5452 5451 5451 5450 5449 5448 5448 5447 5447 5447 5446 5445 5444 5444 5443 5442 5441 5440 5438 5437 5436 5435